Home   Weather   Charleston   Past weeks

Flag for USA Past Weather in Charleston, South Carolina, USA — Yesterday and Last 2 Weeks

Now
72 °F

Passing clouds.


Feels Like: 69 °F
Forecast: 70 / 85 °F
Wind: 3 mph from Northwest

Location: Charleston Air Force Base Reporting Station

Current Time: Sep 30, 2016 at 7:54:52 AM

Latest Report: Sep 30, 2016 at 6:56 AM


Visibility: 10 mi

Pressure: 29.96 "Hg

Humidity: 91%

Dew Point: 69 °F

Location of CharlestonLocation

Past Weather in Charleston — Graph

°F

Charleston Temperature Yesterday

Maximum temperature yesterday: 88 °F (at 2:56 PM)
Minimum temperature yesterday: 75 °F (at 5:56 AM)
Average temperature yesterday: 81 °F

High & Low Weather Summary for the Past Weeks

 TemperatureHumidityPressure
High91 °F (Sep 19, 1:56 PM)94% (Sep 15, 7:56 AM)30.15 "Hg (Sep 15, 7:56 AM)
Low36 °F (Sep 19, 9:56 PM)51% (Sep 25, 3:56 PM)29.86 "Hg (Sep 27, 4:56 PM)
Average77 °F81%29.99 "Hg
* Reported Sep 15 5:56 AM — Sep 30 5:56 AM, Charleston, Weather by CustomWeather, © 2016

Note: Actual official high and low records may vary slightly from our data, if they occured in-between our weather recording intervals... More about our weather records

Advertising

Charleston Weather History for the Previous 24 Hours

Scroll right to see more
 ConditionsComfort  
Time TempWeatherWind HumidityBarometerVisibility
5:56 AM
Fri, Sep 30
73 °FPassing clouds.3 mph90%29.94 "Hg10 mi
4:56 AM72 °FPassing clouds.No wind91%29.92 "Hg10 mi
3:56 AM72 °FPassing clouds.6 mph91%29.92 "Hg10 mi
2:56 AM72 °FPartly cloudy.3 mph91%29.93 "Hg10 mi
1:56 AM73 °FThunderstorms. Passing clouds.3 mph88%29.96 "Hg10 mi
12:56 AM73 °FStrong thunderstorms. Passing clouds.16 mph84%29.97 "Hg5 mi
11:56 PM
Thu, Sep 29
77 °FThunderstorms. Passing clouds.8 mph90%29.97 "Hg10 mi
10:56 PM77 °FPassing clouds.7 mph88%29.98 "Hg10 mi
9:56 PM78 °FPassing clouds.6 mph82%29.97 "Hg10 mi
8:56 PM78 °FPassing clouds.7 mph82%29.96 "Hg10 mi
7:56 PM78 °FPassing clouds.6 mph76%29.96 "Hg10 mi
6:56 PM82 °FScattered clouds.8 mph63%29.95 "Hg10 mi
5:56 PM83 °FScattered clouds.8 mph68%29.94 "Hg10 mi
4:56 PM86 °FScattered clouds.10 mph63%29.92 "Hg10 mi
3:56 PM87 °FScattered clouds.12 mph63%29.91 "Hg10 mi
2:56 PM88 °FBroken clouds.13 mph59%29.92 "Hg10 mi
1:56 PM87 °FBroken clouds.13 mph61%29.94 "Hg10 mi
12:56 PM85 °FPartly sunny.12 mph65%29.97 "Hg10 mi
11:56 AM86 °FScattered clouds.9 mph65%29.98 "Hg10 mi
10:56 AM83 °FScattered clouds.7 mph72%29.97 "Hg10 mi
9:56 AM82 °FScattered clouds.6 mph74%29.97 "Hg10 mi
8:56 AM79 °FPassing clouds.6 mph82%29.96 "Hg10 mi
7:56 AM76 °FPassing clouds.3 mph88%29.94 "Hg10 mi
Weather by CustomWeather, © 2016

See weather overviewHow to use our weather pages